Time,TemperatureF,DewpointF,PressureIn,WindDirection,WindDirectionDegrees,WindSpeedMPH,WindSpeedGustMPH,Humidity,HourlyPrecipIn,Conditions,Clouds,dailyrainin,SoftwareType,DateUTC
2013-01-04 00:16:00,29.9,20.0,30.07,SW,226,0.0,2.0,66,0.00,,,0.00,weatherlink.com 1.10,2013-01-04 05:16:00,
2013-01-04 00:31:00,29.7,20.0,30.07,West,267,0.0,3.0,67,0.00,,,0.00,weatherlink.com 1.10,2013-01-04 05:31:00,
2013-01-04 00:46:00,29.2,20.0,30.07,SW,229,0.0,0.0,68,0.00,,,0.00,weatherlink.com 1.10,2013-01-04 05:46:00,
2013-01-04 01:01:00,28.6,20.0,30.07,West,275,0.0,0.0,69,0.00,,,0.00,weatherlink.com 1.10,2013-01-04 06:01:00,
2013-01-04 01:16:00,28.0,20.0,30.07,West,275,0.0,0.0,71,0.00,,,0.00,weatherlink.com 1.10,2013-01-04 06:16:00,
2013-01-04 01:31:00,27.6,20.0,30.07,West,263,0.0,0.0,72,0.00,,,0.00,weatherlink.com 1.10,2013-01-04 06:31:00,
2013-01-04 01:46:00,27.4,19.0,30.07,WNW,285,0.0,0.0,72,0.00,,,0.00,weatherlink.com 1.10,2013-01-04 06:46:00,
2013-01-04 02:01:00,26.6,19.0,30.07,WNW,285,0.0,0.0,74,0.00,,,0.00,weatherlink.com 1.10,2013-01-04 07:01:00,
2013-01-04 02:16:00,26.1,20.0,30.07,WNW,285,0.0,0.0,76,0.00,,,0.00,weatherlink.com 1.10,2013-01-04 07:16:00,
2013-01-04 02:31:00,25.5,19.0,30.08,WNW,285,0.0,0.0,77,0.00,,,0.00,weatherlink.com 1.10,2013-01-04 07:31:00,
2013-01-04 02:46:00,25.5,19.0,30.08,WNW,285,0.0,0.0,77,0.00,,,0.00,weatherlink.com 1.10,2013-01-04 07:46:00,
2013-01-04 03:01:00,26.3,20.0,30.08,West,260,0.0,2.0,76,0.00,,,0.00,weatherlink.com 1.10,2013-01-04 08:01:00,
2013-01-04 03:16:00,26.6,20.0,30.08,NW,308,0.0,0.0,76,0.00,,,0.00,weatherlink.com 1.10,2013-01-04 08:16:00,
2013-01-04 03:31:00,28.2,21.0,30.08,SW,217,0.0,4.0,73,0.00,,,0.00,weatherlink.com 1.10,2013-01-04 08:31:00,
2013-01-04 03:46:00,29.0,21.0,30.08,North,7,0.0,2.0,71,0.00,,,0.00,weatherlink.com 1.10,2013-01-04 08:46:00,
2013-01-04 04:01:00,29.0,21.0,30.08,North,7,0.0,3.0,71,0.00,,,0.00,weatherlink.com 1.10,2013-01-04 09:01:00,
2013-01-04 04:16:00,29.9,21.0,30.08,West,269,1.0,3.0,70,0.00,,,0.00,weatherlink.com 1.10,2013-01-04 09:16:00,
2013-01-04 04:31:00,30.2,22.0,30.08,SSW,206,0.0,2.0,70,0.00,,,0.00,weatherlink.com 1.10,2013-01-04 09:31:00,
2013-01-04 04:46:00,30.0,21.0,30.08,SSW,200,0.0,1.0,70,0.00,,,0.00,weatherlink.com 1.10,2013-01-04 09:46:00,
2013-01-04 05:01:00,29.7,22.0,30.08,WSW,239,0.0,1.0,72,0.00,,,0.00,weatherlink.com 1.10,2013-01-04 10:01:00,
2013-01-04 05:16:00,29.2,21.0,30.08,South,188,0.0,1.0,72,0.00,,,0.00,weatherlink.com 1.10,2013-01-04 10:16:00,
2013-01-04 05:31:00,28.9,21.0,30.08,South,169,0.0,0.0,73,0.00,,,0.00,weatherlink.com 1.10,2013-01-04 10:31:00,
2013-01-04 05:46:00,29.0,21.0,30.08,West,269,0.0,0.0,73,0.00,,,0.00,weatherlink.com 1.10,2013-01-04 10:46:00,
2013-01-04 06:01:00,29.4,22.0,30.08,SSW,203,0.0,2.0,73,0.00,,,0.00,weatherlink.com 1.10,2013-01-04 11:01:00,
2013-01-04 06:16:00,30.5,22.0,30.08,West,262,0.0,5.0,72,0.00,,,0.00,weatherlink.com 1.10,2013-01-04 11:16:00,
2013-01-04 06:31:00,31.1,23.0,30.08,NNW,328,0.0,3.0,72,0.00,,,0.00,weatherlink.com 1.10,2013-01-04 11:31:00,
2013-01-04 06:46:00,32.0,23.0,30.09,West,263,1.0,9.0,70,0.00,,,0.00,weatherlink.com 1.10,2013-01-04 11:46:00,
2013-01-04 07:01:00,32.4,23.0,30.09,WSW,242,0.0,5.0,69,0.00,,,0.00,weatherlink.com 1.10,2013-01-04 12:01:00,
2013-01-04 07:16:00,32.5,24.0,30.09,West,270,0.0,7.0,70,0.00,,,0.00,weatherlink.com 1.10,2013-01-04 12:16:00,
2013-01-04 07:31:00,32.5,24.0,30.09,NW,308,1.0,4.0,70,0.00,,,0.00,weatherlink.com 1.10,2013-01-04 12:31:00,
2013-01-04 07:46:00,32.5,24.0,30.09,West,276,2.0,4.0,70,0.00,,,0.00,weatherlink.com 1.10,2013-01-04 12:46:00,
2013-01-04 08:01:00,32.6,24.0,30.08,WSW,240,0.0,5.0,70,0.00,,,0.00,weatherlink.com 1.10,2013-01-04 13:01:00,
2013-01-04 08:16:00,32.7,24.0,30.09,WSW,255,3.0,4.0,70,0.00,,,0.00,weatherlink.com 1.10,2013-01-04 13:16:00,
2013-01-04 08:31:00,32.9,24.0,30.09,SE,139,2.0,6.0,69,0.00,,,0.00,weatherlink.com 1.10,2013-01-04 13:31:00,
2013-01-04 08:46:00,33.1,24.0,30.09,West,278,0.0,8.0,68,0.00,,,0.00,weatherlink.com 1.10,2013-01-04 13:46:00,
2013-01-04 09:02:00,33.3,24.0,30.09,West,260,2.0,9.0,68,0.00,,,0.00,weatherlink.com 1.10,2013-01-04 14:02:00,
2013-01-04 09:17:00,33.7,24.0,30.10,SW,219,3.0,10.0,67,0.00,,,0.00,weatherlink.com 1.10,2013-01-04 14:17:00,
2013-01-04 09:32:00,34.1,23.0,30.09,NNW,347,2.0,5.0,65,0.00,,,0.00,weatherlink.com 1.10,2013-01-04 14:32:00,
2013-01-04 09:47:00,34.4,23.0,30.09,WNW,303,2.0,6.0,64,0.00,,,0.00,weatherlink.com 1.10,2013-01-04 14:47:00,
2013-01-04 10:02:00,34.4,22.0,30.09,NE,56,2.0,9.0,62,0.00,,,0.00,weatherlink.com 1.10,2013-01-04 15:02:00,
2013-01-04 10:17:00,34.6,22.0,30.09,WNW,299,1.0,12.0,60,0.00,,,0.00,weatherlink.com 1.10,2013-01-04 15:17:00,
2013-01-04 10:32:00,34.7,22.0,30.08,North,9,2.0,7.0,60,0.00,,,0.00,weatherlink.com 1.10,2013-01-04 15:32:00,
2013-01-04 10:47:00,34.8,22.0,30.07,West,271,9.0,9.0,60,0.00,,,0.00,weatherlink.com 1.10,2013-01-04 15:47:00,
2013-01-04 11:02:00,34.8,22.0,30.07,NW,316,1.0,12.0,60,0.00,,,0.00,weatherlink.com 1.10,2013-01-04 16:02:00,
2013-01-04 11:17:00,34.9,22.0,30.05,WSW,257,2.0,12.0,59,0.00,,,0.00,weatherlink.com 1.10,2013-01-04 16:17:00,
2013-01-04 11:32:00,34.7,22.0,30.05,North,354,1.0,10.0,59,0.00,,,0.00,weatherlink.com 1.10,2013-01-04 16:32:00,
2013-01-04 11:47:00,34.7,22.0,30.04,West,277,3.0,13.0,59,0.00,,,0.00,weatherlink.com 1.10,2013-01-04 16:47:00,
2013-01-04 12:02:00,35.1,22.0,30.03,SSW,193,1.0,6.0,59,0.00,,,0.00,weatherlink.com 1.10,2013-01-04 17:02:00,
2013-01-04 12:17:00,35.8,22.0,30.02,WSW,243,4.0,11.0,57,0.00,,,0.00,weatherlink.com 1.10,2013-01-04 17:17:00,
2013-01-04 12:32:00,35.9,22.0,30.01,NNE,16,2.0,7.0,58,0.00,,,0.00,weatherlink.com 1.10,2013-01-04 17:32:00,
2013-01-04 12:47:00,35.9,22.0,30.00,North,3,4.0,10.0,57,0.00,,,0.00,weatherlink.com 1.10,2013-01-04 17:47:00,
2013-01-04 13:02:00,36.1,22.0,30.00,West,259,4.0,8.0,57,0.00,,,0.00,weatherlink.com 1.10,2013-01-04 18:02:00,
2013-01-04 13:17:00,35.9,22.0,29.99,WSW,257,3.0,9.0,57,0.00,,,0.00,weatherlink.com 1.10,2013-01-04 18:17:00,
2013-01-04 13:32:00,36.7,23.0,29.98,North,356,0.0,7.0,57,0.00,,,0.00,weatherlink.com 1.10,2013-01-04 18:32:00,
2013-01-04 13:47:00,36.9,22.0,29.98,NNW,345,2.0,7.0,56,0.00,,,0.00,weatherlink.com 1.10,2013-01-04 18:47:00,
2013-01-04 14:02:00,37.3,22.0,29.98,WNW,291,4.0,13.0,55,0.00,,,0.00,weatherlink.com 1.10,2013-01-04 19:02:00,
2013-01-04 14:17:00,37.1,23.0,29.97,SSW,213,7.0,9.0,56,0.00,,,0.00,weatherlink.com 1.10,2013-01-04 19:17:00,
2013-01-04 14:32:00,37.2,22.0,29.97,WSW,246,4.0,11.0,55,0.00,,,0.00,weatherlink.com 1.10,2013-01-04 19:32:00,
2013-01-04 14:47:00,36.8,23.0,29.97,West,261,1.0,11.0,57,0.00,,,0.00,weatherlink.com 1.10,2013-01-04 19:47:00,
2013-01-04 15:02:00,36.5,23.0,29.97,WSW,240,4.0,11.0,58,0.00,,,0.00,weatherlink.com 1.10,2013-01-04 20:02:00,
2013-01-04 15:18:00,36.5,23.0,29.97,WNW,291,3.0,10.0,58,0.00,,,0.00,weatherlink.com 1.10,2013-01-04 20:18:00,
2013-01-04 15:32:00,36.5,23.0,29.97,NW,316,2.0,11.0,58,0.00,,,0.00,weatherlink.com 1.10,2013-01-04 20:32:00,
2013-01-04 15:47:00,36.5,22.0,29.97,WSW,252,2.0,10.0,57,0.00,,,0.00,weatherlink.com 1.10,2013-01-04 20:47:00,
2013-01-04 16:03:00,36.1,22.0,29.97,West,277,3.0,10.0,58,0.00,,,0.00,weatherlink.com 1.10,2013-01-04 21:03:00,
2013-01-04 16:18:00,35.9,22.0,29.97,SW,235,3.0,8.0,58,0.00,,,0.00,weatherlink.com 1.10,2013-01-04 21:18:00,
2013-01-04 16:33:00,35.5,22.0,29.97,NW,319,2.0,9.0,59,0.00,,,0.00,weatherlink.com 1.10,2013-01-04 21:33:00,
2013-01-04 16:48:00,35.2,22.0,29.97,NNW,335,2.0,6.0,59,0.00,,,0.00,weatherlink.com 1.10,2013-01-04 21:48:00,
2013-01-04 17:03:00,35.0,22.0,29.97,NW,315,0.0,5.0,60,0.00,,,0.00,weatherlink.com 1.10,2013-01-04 22:03:00,
2013-01-04 17:18:00,34.7,22.0,29.97,WSW,242,0.0,6.0,61,0.00,,,0.00,weatherlink.com 1.10,2013-01-04 22:18:00,
2013-01-04 17:33:00,34.5,23.0,29.98,NW,323,2.0,7.0,62,0.00,,,0.00,weatherlink.com 1.10,2013-01-04 22:33:00,
2013-01-04 17:48:00,34.3,22.0,29.98,WSW,252,4.0,4.0,62,0.00,,,0.00,weatherlink.com 1.10,2013-01-04 22:48:00,
2013-01-04 18:03:00,34.3,23.0,29.98,West,259,2.0,5.0,63,0.00,,,0.00,weatherlink.com 1.10,2013-01-04 23:03:00,
2013-01-04 18:18:00,34.4,23.0,29.99,SW,236,0.0,10.0,63,0.00,,,0.00,weatherlink.com 1.10,2013-01-04 23:18:00,
2013-01-04 18:33:00,34.5,23.0,29.99,SSW,198,4.0,6.0,63,0.00,,,0.00,weatherlink.com 1.10,2013-01-04 23:33:00,
2013-01-04 18:48:00,34.5,23.0,29.99,WNW,298,0.0,8.0,63,0.00,,,0.00,weatherlink.com 1.10,2013-01-04 23:48:00,
2013-01-04 19:03:00,34.4,23.0,29.99,WNW,298,1.0,6.0,63,0.00,,,0.00,weatherlink.com 1.10,2013-01-05 00:03:00,
2013-01-04 19:18:00,34.4,22.0,29.99,WSW,246,4.0,9.0,62,0.00,,,0.00,weatherlink.com 1.10,2013-01-05 00:18:00,
2013-01-04 19:33:00,34.5,23.0,29.99,South,176,6.0,9.0,62,0.00,,,0.00,weatherlink.com 1.10,2013-01-05 00:33:00,
2013-01-04 19:48:00,34.5,23.0,29.99,West,281,0.0,9.0,62,0.00,,,0.00,weatherlink.com 1.10,2013-01-05 00:48:00,
2013-01-04 20:03:00,34.4,22.0,29.99,SSE,160,0.0,8.0,62,0.00,,,0.00,weatherlink.com 1.10,2013-01-05 01:03:00,
2013-01-04 20:18:00,34.3,22.0,29.99,WNW,300,1.0,8.0,62,0.00,,,0.00,weatherlink.com 1.10,2013-01-05 01:18:00,
2013-01-04 20:33:00,34.1,22.0,29.99,WSW,242,0.0,6.0,62,0.00,,,0.00,weatherlink.com 1.10,2013-01-05 01:33:00,
2013-01-04 20:48:00,33.9,22.0,29.99,NNW,347,7.0,10.0,62,0.00,,,0.00,weatherlink.com 1.10,2013-01-05 01:48:00,
2013-01-04 21:03:00,33.5,22.0,29.99,North,3,0.0,7.0,63,0.00,,,0.00,weatherlink.com 1.10,2013-01-05 02:03:00,
2013-01-04 21:18:00,33.4,22.0,29.99,NNW,341,0.0,3.0,63,0.00,,,0.00,weatherlink.com 1.10,2013-01-05 02:18:00,
2013-01-04 21:33:00,33.1,22.0,29.99,North,4,1.0,3.0,64,0.00,,,0.00,weatherlink.com 1.10,2013-01-05 02:33:00,
2013-01-04 21:48:00,32.9,22.0,29.99,SW,234,3.0,7.0,64,0.00,,,0.00,weatherlink.com 1.10,2013-01-05 02:48:00,
2013-01-04 22:03:00,32.7,22.0,30.00,NNW,333,0.0,4.0,65,0.00,,,0.00,weatherlink.com 1.10,2013-01-05 03:03:00,
2013-01-04 22:18:00,32.7,22.0,30.00,SW,233,0.0,4.0,64,0.00,,,0.00,weatherlink.com 1.10,2013-01-05 03:18:00,
2013-01-04 22:33:00,32.2,22.0,30.01,WSW,246,0.0,2.0,65,0.00,,,0.00,weatherlink.com 1.10,2013-01-05 03:33:00,
2013-01-04 22:48:00,32.1,21.0,30.01,SW,236,0.0,2.0,65,0.00,,,0.00,weatherlink.com 1.10,2013-01-05 03:48:00,
2013-01-04 23:03:00,32.1,21.0,30.02,WSW,243,2.0,3.0,64,0.00,,,0.00,weatherlink.com 1.10,2013-01-05 04:03:00,
2013-01-04 23:18:00,31.7,21.0,30.02,WNW,290,0.0,2.0,64,0.00,,,0.00,weatherlink.com 1.10,2013-01-05 04:18:00,
2013-01-04 23:33:00,31.7,21.0,30.02,West,277,0.0,3.0,64,0.00,,,0.00,weatherlink.com 1.10,2013-01-05 04:33:00,
2013-01-04 23:48:00,31.9,20.0,30.02,WSW,257,2.0,3.0,63,0.00,,,0.00,weatherlink.com 1.10,2013-01-05 04:48:00,